FW7281 Weather Reports


time (UTC)temp
C
wind
direction
speed
KPH
gust
KPH
rain 1hr
cm
rain 24hr
cm
rain mn
cm
humidity
%
barometer
mb
20260503200513 16 273 0.0 3.2 0.00 0.00 0.00 37 1016.5
20260503200013 16 282 0.0 1.6 0.00 0.00 0.00 39 1016.5
20260503195512 17 109 0.0 1.6 0.00 0.00 0.00 35 1016.6
20260503195012 17 285 0.0 0.0 0.00 0.00 0.00 38 1016.6
20260503194515 17 148 0.0 1.6 0.00 0.00 0.00 35 1016.7
20260503194012 17 319 0.0 1.6 0.00 0.00 0.00 37 1016.8
20260503193514 17 248 0.0 1.6 0.00 0.00 0.00 36 1016.9
20260503193011 16 122 0.0 0.0 0.00 0.00 0.00 40 1016.8
20260503192508 16 261 0.0 1.6 0.00 0.00 0.00 39 1016.9
20260503192008 16 245 0.0 1.6 0.00 0.00 0.00 40 1017.0
20260503191507 16 255 0.0 4.8 0.00 0.00 0.00 36 1017.1
20260503191006 15 250 0.0 4.8 0.00 0.00 0.00 35 1017.1
20260503190506 15 245 0.0 1.6 0.00 0.00 0.00 33 1017.2
20260503190005 15 260 0.0 1.6 0.00 0.00 0.00 36 1017.3
20260503185503 15 67 0.0 1.6 0.00 0.00 0.00 39 1017.3
20260503185003 15 143 0.0 1.6 0.00 0.00 0.00 35 1017.4
20260503184504 15 255 0.0 1.6 0.00 0.00 0.00 39 1017.5
20260503184002 15 103 0.0 1.6 0.00 0.00 0.00 34 1017.7
20260503183501 15 203 0.0 3.2 0.00 0.00 0.00 36 1017.6
20260503183001 15 239 0.0 3.2 0.00 0.00 0.00 35 1017.7
20260503182502 15 256 0.0 1.6 0.00 0.00 0.00 36 1017.7
20260503182100 15 273 0.0 3.2 0.00 0.00 0.00 38 1017.8
20260503181600 14 250 0.0 6.4 0.00 0.00 0.00 34 1017.9
20260503181059 14 241 0.0 1.6 0.00 0.00 0.00 35 1018.1
20260503180559 14 129 0.0 4.8 0.00 0.00 0.00 32 1018.0
20260503180058 14 257 0.0 4.8 0.00 0.00 0.00 38 1018.1
20260503175557 14 134 0.0 1.6 0.00 0.00 0.00 37 1018.1
20260503175056 14 250 0.0 1.6 0.00 0.00 0.00 37 1018.1
20260503174556 13 235 0.0 1.6 0.00 0.00 0.00 40 1018.1
20260503174055 13 245 0.0 1.6 0.00 0.00 0.00 39 1018.3
20260503173555 13 252 0.0 1.6 0.00 0.00 0.00 39 1018.4
20260503173056 13 241 0.0 1.6 0.00 0.00 0.00 39 1018.5
20260503172554 13 236 0.0 1.6 0.00 0.00 0.00 38 1018.4
20260503172055 13 250 0.0 4.8 0.00 0.00 0.00 37 1018.5
20260503171611 13 252 0.0 4.8 0.00 0.00 0.00 40 1018.6
20260503171056 13 252 0.0 1.6 0.00 0.00 0.00 38 1018.6
20260503170553 13 239 0.0 1.6 0.00 0.00 0.00 37 1018.7
20260503170103 13 251 0.0 1.6 0.00 0.00 0.00 39 1018.7
20260503150533 10 91 0.0 1.6 0.00 0.00 0.00 55 1019.5
20260503131007 6 247 0.0 1.6 0.00 0.00 0.00 70 1019.3
20260503130507 6 248 0.0 1.6 0.00 0.00 0.00 72 1019.2
20260503110553 2 200 0.0 0.0 0.00 0.00 0.00 89 1018.1
20260503081534 3 140 0.0 0.0 0.00 0.00 0.00 84 1016.2
20260503081030 3 140 0.0 0.0 0.00 0.00 0.00 84 1016.1
20260503080529 3 140 0.0 0.0 0.00 0.00 0.00 84 1016.0
20260503072527 3 141 0.0 0.0 0.00 0.00 0.00 82 1015.7
20260503072025 3 141 0.0 0.0 0.00 0.00 0.00 82 1015.7
20260503071524 3 141 0.0 0.0 0.00 0.00 0.00 81 1015.7
20260503071023 4 141 0.0 0.0 0.00 0.00 0.00 81 1015.6
20260503070522 4 141 0.0 0.0 0.00 0.00 0.00 82 1015.6
20260503055014 4 146 0.0 0.0 0.00 0.00 0.00 78 1015.3
20260503054521 4 146 0.0 0.0 0.00 0.00 0.00 78 1015.3
20260503054014 4 146 0.0 0.0 0.00 0.00 0.00 78 1015.2
20260503053512 5 146 0.0 0.0 0.00 0.00 0.00 77 1015.2
20260503053013 5 146 0.0 0.0 0.00 0.00 0.00 76 1015.2
20260503052513 5 146 0.0 0.0 0.00 0.00 0.00 76 1015.2
20260503052010 5 146 0.0 0.0 0.00 0.00 0.00 75 1015.1
20260503051510 5 146 0.0 0.0 0.00 0.00 0.00 76 1015.1
20260503051007 5 146 0.0 0.0 0.00 0.00 0.00 75 1015.1
20260503050507 5 146 0.0 0.0 0.00 0.00 0.00 74 1015.0
20260503050007 5 146 0.0 0.0 0.00 0.00 0.00 75 1015.1
20260503045506 5 146 0.0 0.0 0.00 0.00 0.00 74 1015.1
20260503045009 5 146 0.0 0.0 0.00 0.00 0.00 75 1015.2
20260503044509 5 146 0.0 0.0 0.00 0.00 0.00 73 1015.1
20260503044004 5 146 0.0 0.0 0.00 0.00 0.00 74 1015.1
20260503043504 5 146 0.0 0.0 0.00 0.00 0.00 74 1015.0
20260503043003 5 189 0.0 0.0 0.00 0.00 0.00 73 1015.0
20260503042502 6 189 0.0 0.0 0.00 0.00 0.00 73 1014.9
20260503042002 6 190 0.0 0.0 0.00 0.00 0.00 73 1014.8
20260503041501 6 190 0.0 0.0 0.00 0.00 0.00 72 1014.7
20260503041059 5 128 0.0 0.0 0.00 0.00 0.00 71 1014.6
20260503040559 6 128 0.0 0.0 0.00 0.00 0.00 73 1014.6
20260503040058 6 128 0.0 0.0 0.00 0.00 0.00 73 1014.5
20260503035557 6 128 0.0 0.0 0.00 0.00 0.00 73 1014.4
20260503035056 6 127 0.0 0.0 0.00 0.00 0.00 73 1014.4
20260503034555 6 127 0.0 0.0 0.00 0.00 0.00 73 1014.3
20260503034054 6 127 0.0 0.0 0.00 0.00 0.00 73 1014.3
20260503033554 6 127 0.0 0.0 0.00 0.00 0.00 72 1014.3
20260503033053 6 127 0.0 0.0 0.00 0.00 0.00 72 1014.3
20260503032553 6 127 0.0 0.0 0.00 0.00 0.00 72 1014.2
20260503032052 6 127 0.0 0.0 0.00 0.00 0.00 71 1014.3
20260503031552 6 127 0.0 0.0 0.00 0.00 0.00 71 1014.2
20260503031051 6 127 0.0 0.0 0.00 0.00 0.00 70 1014.2
20260503030551 6 129 0.0 0.0 0.00 0.00 0.00 71 1014.2
20260503030054 6 127 0.0 0.0 0.00 0.00 0.00 70 1014.1
20260503025549 6 127 0.0 0.0 0.00 0.00 0.00 71 1014.1
20260503025049 6 127 0.0 0.0 0.00 0.00 0.00 69 1014.0
20260503024549 6 131 0.0 0.0 0.00 0.00 0.00 69 1014.0
20260503024048 6 131 0.0 0.0 0.00 0.00 0.00 68 1014.0
20260503023547 6 136 0.0 0.0 0.00 0.00 0.00 68 1014.0
20260503023050 6 136 0.0 0.0 0.00 0.00 0.00 68 1014.0
20260503022546 6 136 0.0 0.0 0.00 0.00 0.00 69 1013.9
20260503022047 6 136 0.0 0.0 0.00 0.00 0.00 68 1013.9
20260503021553 7 136 0.0 0.0 0.00 0.00 0.00 68 1013.8
20260503021044 7 136 0.0 0.0 0.00 0.00 0.00 67 1013.7
20260503020544 7 136 0.0 0.0 0.00 0.00 0.00 67 1013.7
20260503020045 7 136 0.0 0.0 0.00 0.00 0.00 67 1013.5
20260503015542 7 136 0.0 0.0 0.00 0.00 0.00 67 1013.5
20260503015041 7 136 0.0 0.0 0.00 0.00 0.00 66 1013.4
20260503014539 7 136 0.0 0.0 0.00 0.00 0.00 67 1013.3
20260503014039 7 136 0.0 0.0 0.00 0.00 0.00 65 1013.3
20260503013539 7 136 0.0 0.0 0.00 0.00 0.00 65 1013.3
20260503013039 7 136 0.0 0.0 0.00 0.00 0.00 66 1013.3
20260503012537 7 136 0.0 0.0 0.00 0.00 0.00 64 1013.2
20260503012037 7 149 0.0 0.0 0.00 0.00 0.00 64 1013.1
20260503011545 8 149 0.0 0.0 0.00 0.00 0.00 63 1013.0
20260503011033 8 149 0.0 0.0 0.00 0.00 0.00 64 1013.0
20260503010533 8 165 0.0 0.0 0.00 0.00 0.00 62 1013.0
20260503010036 8 173 0.0 0.0 0.00 0.00 0.00 63 1012.8
20260503005533 8 173 0.0 0.0 0.00 0.00 0.00 62 1012.7
20260503005030 9 173 0.0 0.0 0.00 0.00 0.00 61 1012.7
20260503004529 9 173 0.0 0.0 0.00 0.00 0.00 60 1012.6
20260503004028 10 173 0.0 0.0 0.00 0.00 0.00 58 1012.6
20260503003528 10 178 0.0 0.0 0.00 0.00 0.00 57 1012.6
20260503003027 10 179 0.0 1.6 0.00 0.00 0.00 55 1012.4
20260503002527 10 178 0.0 1.6 0.00 0.00 0.00 52 1012.5
20260503002026 10 129 0.0 0.0 0.00 0.00 0.00 51 1012.3
20260503001525 10 129 0.0 0.0 0.00 0.00 0.00 52 1012.1
20260503001027 11 138 0.0 0.0 0.00 0.00 0.00 49 1012.0
20260503000528 11 236 0.0 1.6 0.00 0.00 0.00 49 1011.9
20260503000040 11 236 0.0 1.6 0.00 0.00 0.00 48 1011.8
20260502235523 11 237 0.0 1.6 0.00 0.00 0.00 47 1011.8
20260502235023 11 236 0.0 1.6 0.00 0.00 0.00 46 1011.8
20260502234523 11 246 0.0 1.6 0.00 0.00 0.00 45 1011.7
20260502234023 12 129 0.0 1.6 0.00 0.00 0.00 47 1011.5
20260502233523 12 212 0.0 1.6 0.00 0.00 0.00 45 1011.4
20260502233023 12 251 0.0 1.6 0.00 0.00 0.00 47 1011.5
20260502232522 12 261 0.0 1.6 0.00 0.00 0.00 46 1011.3
20260502232022 12 237 0.0 1.6 0.00 0.00 0.00 44 1011.2
20260502231525 12 281 0.0 1.6 0.00 0.00 0.00 44 1011.1
20260502231023 12 143 0.0 1.6 0.00 0.00 0.00 42 1011.0
20260502230523 12 220 0.0 3.2 0.00 0.00 0.00 44 1011.1
20260502230024 12 245 0.0 3.2 0.00 0.00 0.00 44 1011.0
20260502225525 12 233 0.0 3.2 0.00 0.00 0.00 42 1011.0
20260502225021 12 223 0.0 3.2 0.00 0.00 0.00 44 1011.0
20260502224521 12 258 0.0 3.2 0.00 0.00 0.00 43 1010.7
20260502224023 12 214 0.0 1.6 0.00 0.00 0.00 44 1010.7
20260502223521 12 105 0.0 1.6 0.00 0.00 0.00 46 1010.9
20260502223028 12 221 0.0 1.6 0.00 0.00 0.00 43 1010.9
20260502222521 13 251 0.0 1.6 0.00 0.00 0.00 44 1010.9
20260502222022 13 140 0.0 1.6 0.00 0.00 0.00 41 1010.9
20260502221520 13 129 0.0 1.6 0.00 0.00 0.00 44 1010.9
20260502221020 13 120 0.0 6.4 0.00 0.00 0.00 40 1010.7
20260502220520 13 254 0.0 6.4 0.00 0.00 0.00 43 1010.6
20260502220020 13 108 0.0 1.6 0.00 0.00 0.00 39 1010.8
20260502215522 13 229 0.0 1.6 0.00 0.00 0.00 40 1010.6
20260502215023 13 130 0.0 3.2 0.00 0.00 0.00 40 1010.5
20260502214519 13 226 0.0 3.2 0.00 0.00 0.00 40 1010.3
20260502214019 14 280 0.0 8.0 0.00 0.00 0.00 40 1010.4
20260502213519 15 239 0.0 8.0 0.00 0.00 0.00 38 1010.2
20260502213019 15 278 0.0 3.2 0.00 0.00 0.00 41 1010.0
20260502212519 15 236 0.0 3.2 0.00 0.00 0.00 40 1010.1
20260502212019 14 199 0.0 4.8 0.00 0.00 0.00 40 1010.2
20260502211522 14 233 0.0 4.8 0.00 0.00 0.00 38 1010.1
20260502211018 14 150 0.0 3.2 0.00 0.00 0.00 40 1009.9
20260502210518 15 237 0.0 3.2 0.00 0.00 0.00 36 1010.0
20260502210019 15 195 0.0 1.6 0.00 0.00 0.00 36 1010.0
20260502205518 15 270 0.0 1.6 0.00 0.00 0.00 38 1009.8
20260502205022 15 332 0.0 4.8 0.00 0.00 0.00 41 1009.8
20260502204519 15 71 0.0 9.7 0.00 0.00 0.00 40 1010.0
20260502204019 15 234 0.0 9.7 0.00 0.00 0.00 38 1009.9
20260502203517 15 236 0.0 1.6 0.00 0.00 0.00 37 1009.9
20260502203016 15 275 0.0 1.6 0.00 0.00 0.00 39 1009.8
20260502202515 15 261 0.0 1.6 0.00 0.00 0.00 41 1009.8
20260502202015 15 89 0.0 6.4 0.00 0.00 0.00 42 1009.7
20260502201515 15 255 0.0 6.4 0.00 0.00 0.00 36 1009.9
20260502201015 14 245 0.0 1.6 0.00 0.00 0.00 40 1009.9